Temperature
7 7 7 7 7 7 7 8 9 10 10 11 12 11 10 9 8 6 5 3 2 2 2 2 3 3 3 4 4 4 4 5 5 5 5 5 6 6 6 6 6 6 6 6
6 7 7 6 7 7 7 8 9 9 9 11 11 10 9 9 7 5 4 2 1 1 1 1 1 2 2 2 3 3 3 3 3 3 4 4 4 4 5 5 5 5 5 5
7 7 6 7 8 8 7 8 9 9 10 11 11 10 9 7 6 4 3 2 1 1 0 0 1 1 1 1 1 2 2 2 2 2 2 2 3 3 3 3 3 3 3 2
7 7 6 10 9 9 8 9 9 9 10 11 10 9 7 5 4 3 2 1 1 1 0 0 0 1 0 0 0 1 1 1 1 1 1 1 1 1 1 1 1 1 0 -0
7 7 8 10 9 8 8 9 10 9 10 10 9 8 6 5 4 3 2 2 1 1 1 1 0 0 0 0 0 0 -0 -0 -0 -0 -0 -0 -0 -0 -0 -0 -1 -1 -1 -1
7 7 8 10 9 8 9 10 10 9 10 9 8 10 10 5 4 3 3 2 2 1 1 1 1 1 1 0 0 -0 -0 -1 -1 -1 -0 -1 -1 -1 -1 -1 -1 -1 -1 -1
7 7 9 10 9 8 9 10 10 9 9 8 8 9 7 5 4 4 3 3 2 2 2 2 1 1 1 1 0 0 -0 -0 -0 -0 -0 -1 -1 -1 -1 -1 -1 -1 -1 -2
7 7 9 9 8 9 10 9 9 8 8 7 7 6 6 5 4 4 4 3 3 3 2 2 2 1 1 1 1 0 0 0 0 -0 -0 -1 -1 -1 -1 -1 -1 -1 -2 -2
9 9 10 8 9 9 8 8 8 8 8 7 6 6 5 5 4 4 4 4 3 3 3 2 2 2 2 1 1 1 1 0 0 -0 -0 -1 -1 -1 -1 -1 -1 -2 -2 -3
8 9 9 8 8 8 8 8 8 8 8 7 7 6 6 5 5 4 4 4 4 3 3 3 2 2 2 1 1 1 1 0 0 -0 -0 -1 -1 -1 -1 -2 -2 -2 -3 -3
8 9 8 8 8 8 8 8 8 8 8 7 7 7 6 6 5 5 4 4 4 4 3 3 2 2 2 1 1 0 0 0 -0 -0 -1 -1 -1 -2 -2 -2 -3 -3 -4 -4
9 9 9 9 7 7 7 7 7 7 7 7 7 7 6 6 5 5 4 4 4 4 3 3 2 2 1 1 0 0 0 -0 -0 -1 -1 -1 -2 -2 -2 -3 -3 -4 -4 -5
7 6 7 6 6 7 7 7 7 7 7 7 7 6 6 5 5 5 4 4 4 4 3 3 2 2 1 1 1 0 -0 -0 -1 -1 -1 -2 -2 -3 -3 -4 -4 -5 -5 -6
6 6 6 6 6 6 6 6 6 6 6 6 6 6 5 5 4 4 4 4 4 3 3 2 2 2 1 1 0 -0 -0 -1 -1 -1 -2 -2 -3 -3 -4 -4 -5 -6 -6 -7
5 5 5 5 5 5 4 5 5 5 5 5 5 5 5 4 4 4 3 3 3 3 3 2 2 1 1 1 0 -0 -1 -1 -1 -2 -2 -2 -3 -3 -4 -5 -5 -6 -7 -7
4 4 4 4 4 3 3 3 3 4 4 4 5 4 4 4 3 3 3 2 3 3 2 2 2 1 1 0 0 -0 -1 -1 -1 -2 -2 -3 -3 -4 -5 -5 -6 -7 -7 -8
3 3 3 2 2 2 2 2 2 3 3 4 4 4 3 3 2 2 2 2 2 2 2 1 1 1 0 -0 -0 -1 -1 -1 -2 -2 -3 -3 -4 -4 -5 -6 -6 -7 -8 -8
2 2 2 1 1 1 2 2 2 2 3 3 3 3 3 3 2 2 2 1 1 1 1 1 0 -0 -0 -0 -1 -1 -1 -2 -2 -2 -3 -3 -4 -5 -5 -6 -7 -7 -8 -8
1 1 1 1 1 1 1 2 2 2 3 3 3 3 3 2 2 1 1 1 1 1 1 0 -0 -1 -1 -1 -1 -1 -2 -2 -2 -3 -3 -4 -4 -5 -6 -6 -7 -8 -8 -8
0 0 0 1 1 1 1 2 2 2 2 3 3 2 2 2 1 1 0 0 0 0 0 -0 -0 -1 -1 -1 -1 -2 -2 -2 -2 -3 -3 -4 -5 -5 -6 -7 -7 -8 -8 -8
0 1 1 1 1 1 1 1 2 2 2 2 2 2 1 1 1 0 -0 -0 -0 -0 -1 -1 -1 -1 -1 -1 -2 -2 -2 -2 -3 -3 -4 -4 -5 -6 -6 -7 -7 -8 -8 -8
0 1 1 1 1 1 1 1 1 1 1 1 1 1 1 0 0 -0 -0 -0 -0 -1 -1 -1 -1 -1 -1 -2 -2 -2 -2 -3 -3 -3 -4 -4 -5 -6 -6 -7 -7 -8 -8 -8
0 0 0 0 0 0 0 0 1 1 0 0 0 0 -0 -0 -0 -0 -0 -0 -1 -1 -1 -1 -1 -1 -2 -2 -2 -2 -3 -3 -3 -4 -4 -5 -5 -6 -6 -7 -7 -7 -8 -8
-0 -0 -0 -0 -0 -0 -0 -0 -0 -0 -0 -0 -0 -0 -1 -1 -1 -1 -1 -1 -1 -1 -1 -1 -2 -2 -2 -2 -2 -3 -3 -3 -3 -4 -4 -5 -5 -6 -6 -7 -7 -7 -7 -7
-1 -1 -1 -1 -1 -1 -1 -1 -1 -1 -1 -1 -1 -1 -1 -1 -1 -1 -1 -1 -1 -1 -1 -1 -2 -2 -2 -2 -3 -3 -3 -3 -4 -4 -5 -5 -6 -6 -6 -7 -7 -7 -7 -7
-1 -1 -1 -1 -1 -1 -1 -1 -2 -2 -2 -2 -2 -2 -2 -2 -1 -1 -1 -1 -1 -1 -2 -2 -2 -2 -3 -3 -3 -3 -3 -4 -4 -4 -5 -5 -6 -6 -6 -7 -7 -7 -7 -7
-2 -2 -2 -2 -2 -2 -2 -2 -2 -2 -2 -2 -2 -2 -2 -2 -2 -2 -2 -2 -2 -2 -2 -2 -2 -3 -3 -3 -3 -3 -4 -4 -4 -5 -5 -5 -6 -6 -6 -6 -7 -7 -7 -7
Wind_Speed
1 2 4 5 9 13 12 9 7 5 5 8 8 8 8 7 7 6 5 6 7 7 8 8 9 9 10 10 11 11 10 11 11 10 10 10 9 9 9 9 9 9 10 10
1 2 4 6 10 13 14 14 14 12 11 11 8 6 7 7 6 5 4 5 6 6 7 8 9 9 9 10 10 9 10 10 10 10 11 11 11 11 11 11 11 11 11 11
2 2 3 8 12 16 11 12 12 14 10 8 7 8 8 6 4 3 2 3 5 5 6 7 7 8 8 8 8 9 9 9 10 10 11 11 11 11 11 11 12 12 12 12
2 2 6 1 2 9 14 14 14 12 12 11 10 9 5 2 1 0 1 2 3 4 5 5 6 6 6 7 8 8 9 9 9 9 10 10 11 11 11 10 11 11 12 12
2 3 6 5 4 7 8 7 13 16 15 13 8 5 3 3 2 2 2 2 2 3 3 4 5 6 6 7 8 9 9 8 8 8 9 10 10 10 10 10 11 11 11 12
4 4 4 0 3 6 5 3 5 9 10 7 3 4 2 6 5 4 4 3 2 3 3 4 5 5 6 7 8 8 8 8 8 8 9 10 10 10 9 10 10 10 11 10
7 6 6 2 5 7 5 3 4 4 5 5 5 3 4 8 7 6 5 4 4 3 3 3 4 5 6 7 7 6 7 8 9 9 9 9 9 9 9 9 10 10 10 8
7 8 7 5 8 7 1 2 1 3 4 5 5 3 6 8 8 7 7 6 5 4 3 3 3 5 6 6 5 5 7 8 8 8 7 7 9 8 8 8 8 8 7 7
8 7 0 4 5 1 0 2 2 3 3 4 5 6 8 9 9 8 8 7 6 6 5 3 3 4 5 4 5 6 7 8 8 8 7 7 7 7 6 5 5 5 4 4
6 8 6 5 4 3 3 3 3 3 4 5 6 7 9 9 9 9 9 8 7 7 6 5 4 4 5 6 6 7 8 7 7 7 7 7 5 5 4 4 3 3 3 3
8 5 3 4 4 2 2 2 3 3 4 6 7 8 9 10 11 10 9 8 8 8 8 7 6 6 5 6 7 8 7 6 6 6 6 6 6 5 5 5 4 3 3 2
8 6 5 4 3 0 2 3 4 4 4 5 7 8 9 10 10 10 10 10 9 9 9 8 8 7 6 6 7 7 7 6 5 4 4 4 5 5 8 6 7 5 3 2
3 2 2 1 0 1 3 5 6 6 6 6 6 7 9 9 10 11 11 11 11 10 9 9 9 8 7 7 6 6 6 6 4 4 4 3 3 2 2 3 5 5 5 4
2 2 2 1 1 4 6 7 6 6 5 5 5 6 7 8 10 12 12 11 10 10 9 9 9 8 8 7 7 6 6 5 4 4 3 3 2 1 1 1 2 1 2 4
3 1 2 3 5 5 5 5 5 5 5 4 5 6 8 10 11 11 10 10 10 10 10 9 9 8 8 8 7 7 6 5 4 4 3 3 2 1 1 1 2 2 3 2
2 2 3 4 5 5 6 6 6 7 6 6 6 7 9 9 9 9 10 11 11 12 11 10 9 8 8 8 8 6 5 6 5 4 3 3 2 2 2 2 2 3 3 4
2 2 2 3 5 7 7 7 8 8 8 8 8 7 7 8 8 9 10 10 9 9 9 10 9 8 9 9 8 6 5 6 7 4 3 3 3 2 2 2 3 3 4 4
2 3 4 6 7 9 9 9 8 8 8 7 6 7 9 10 10 10 10 9 8 7 8 8 9 9 9 9 7 5 5 5 5 4 4 3 3 2 2 3 3 4 4 5
1 2 4 5 6 7 8 9 9 8 7 5 6 8 9 9 9 9 9 10 10 10 9 8 12 10 9 9 8 6 6 6 5 4 3 4 3 2 2 3 4 4 5 5
1 2 3 4 5 5 6 7 8 6 4 3 5 6 7 7 7 8 10 9 8 5 8 10 11 9 9 10 10 6 6 6 5 5 4 4 3 3 3 3 4 4 5 5
2 3 4 5 5 5 6 7 6 4 3 2 4 5 5 6 7 8 8 7 6 6 9 13 10 8 8 9 10 6 6 6 5 5 4 4 3 3 3 4 4 5 5 6
2 3 4 5 5 5 6 6 6 4 2 1 1 2 4 5 6 6 7 5 6 10 9 9 8 10 12 12 7 7 6 6 5 4 4 4 3 3 4 4 4 5 5 6
2 3 4 5 5 5 5 6 6 5 3 2 1 2 4 4 5 6 6 5 6 11 10 8 11 15 17 10 7 7 7 6 6 5 4 4 4 4 4 4 5 5 6 6
1 3 3 4 4 4 6 7 7 5 4 3 2 2 3 3 3 4 3 6 10 12 8 11 16 18 17 8 7 7 7 6 5 5 4 4 4 4 4 4 5 6 6 8
2 2 3 4 4 4 5 6 6 5 5 4 3 2 1 2 3 3 3 6 10 11 8 12 17 18 12 7 7 7 6 6 5 5 4 4 4 4 4 5 5 6 6 7
1 2 2 3 3 3 4 4 4 4 5 4 4 3 2 1 1 2 3 5 7 10 8 8 11 13 9 8 7 7 6 6 6 5 5 4 4 5 5 5 7 6 7 7
2 2 2 3 2 3 4 4 4 5 5 5 5 3 3 2 1 2 3 4 5 6 7 7 8 9 8 7 7 6 6 5 5 4 4 4 4 4 5 6 6 6 6 7
Wind_Direction
107 119 164 201 200 198 207 215 221 233 248 265 287 305 313 322 329 336 346 356 1 2 3 3 2 0 360 360 1 1 7 14 15 14 21 30 37 44 53 61 69 79 85 88
181 196 219 241 227 215 220 229 239 257 273 271 283 289 301 316 324 329 345 355 1 4 3 3 3 2 3 5 5 10 20 23 25 30 36 42 47 54 59 64 71 76 81 87
190 177 248 253 229 211 208 213 220 233 244 267 286 301 314 316 309 319 347 358 5 7 7 5 4 5 9 10 13 24 31 32 35 41 46 47 54 60 64 69 74 77 80 84
180 196 240 236 145 202 216 225 221 236 253 270 289 307 304 275 247 181 35 18 21 15 15 13 14 19 22 26 31 38 40 40 43 50 56 58 61 63 64 68 73 77 81 83
206 250 273 263 198 181 193 231 225 233 254 272 293 290 232 177 161 132 115 77 49 37 35 32 32 33 41 44 44 45 43 44 49 58 64 65 65 64 65 70 71 72 76 79
210 247 252 153 139 171 181 204 181 210 243 267 261 264 173 156 160 149 136 124 99 81 73 62 54 56 61 56 53 47 45 50 56 63 68 70 70 69 69 73 75 76 76 77
221 245 267 240 145 156 196 166 156 209 242 246 231 266 121 150 157 153 147 139 124 107 91 75 76 82 73 65 55 51 57 60 61 65 71 76 77 76 79 82 83 82 82 81
205 224 245 156 161 191 202 78 210 241 242 240 231 178 161 168 166 163 158 152 144 133 115 94 98 103 93 77 72 74 75 71 67 68 73 80 86 85 87 93 93 93 91 87
209 223 346 167 195 206 335 264 268 255 242 229 217 203 189 184 178 175 170 163 159 153 143 127 120 127 118 113 111 103 93 85 82 81 78 81 86 90 89 88 90 94 95 95
235 244 242 236 239 260 260 261 271 257 244 225 224 210 194 187 182 180 177 173 169 166 162 155 145 137 132 133 131 120 108 100 95 91 87 82 79 78 82 84 91 99 100 102
233 245 238 223 208 220 272 281 285 271 243 234 227 215 201 193 189 184 180 177 177 178 172 165 159 150 146 147 143 128 117 110 104 97 98 91 81 71 72 63 53 70 77 72
215 206 203 183 136 27 303 305 309 293 266 238 225 220 204 199 191 185 181 178 180 182 176 169 166 160 158 159 156 141 133 130 123 118 111 107 105 95 73 73 77 72 60 24
193 148 209 253 309 45 324 310 304 284 266 254 232 219 206 199 189 185 184 184 186 183 178 172 171 168 167 168 168 160 149 144 139 138 135 131 129 132 130 92 72 56 36 13
150 171 224 218 279 329 315 305 296 283 266 251 232 213 202 196 189 190 191 189 183 177 176 175 175 174 170 170 169 161 152 147 150 151 153 156 160 170 220 261 268 278 3 349
156 169 270 309 307 309 313 307 292 277 264 247 225 211 201 197 196 195 188 177 172 175 178 179 180 176 170 171 169 164 159 157 157 155 157 160 161 171 196 243 275 288 291 291
176 284 287 285 294 306 304 298 288 281 269 249 231 219 211 206 199 188 180 174 177 185 185 185 186 176 171 170 167 166 167 161 160 162 165 170 179 195 218 246 266 279 289 301
184 223 254 280 294 302 300 292 284 281 274 255 239 221 203 195 191 188 186 185 187 185 183 185 182 170 172 174 172 168 162 164 169 171 178 183 192 208 229 254 273 285 290 299
239 267 276 282 290 296 298 296 289 282 271 260 235 204 196 196 198 193 185 178 175 176 184 184 173 168 172 174 173 166 165 167 175 181 182 187 195 208 234 260 278 287 295 297
252 282 291 292 294 294 295 299 297 290 279 250 213 205 204 204 200 187 176 178 185 192 190 178 172 171 173 176 170 167 168 170 176 182 185 190 193 216 243 265 279 288 293 295
26 343 328 322 320 314 311 311 308 301 287 234 205 200 201 198 186 178 181 193 198 186 167 170 173 175 175 176 171 169 173 177 181 183 187 197 210 228 248 266 278 285 288 288
20 2 353 343 337 337 337 333 329 326 321 225 204 204 200 189 181 179 186 201 191 163 166 173 175 176 175 174 173 173 177 182 186 188 193 202 215 233 251 263 273 278 283 286
10 1 354 347 345 347 348 349 352 350 351 335 224 192 184 186 186 192 203 206 177 174 173 178 179 179 177 173 175 177 181 185 187 188 195 204 218 235 250 262 269 275 279 281
5 356 352 350 345 341 349 1 0 354 344 318 264 219 210 204 193 195 207 197 177 183 181 184 184 181 178 173 178 180 183 187 190 193 199 206 219 236 251 262 268 273 278 281
358 357 353 348 350 0 360 354 349 346 341 327 294 246 217 206 209 211 205 185 188 187 188 189 185 184 178 178 180 183 186 189 192 194 199 208 221 235 248 259 268 273 276 279
338 340 349 355 1 355 343 336 338 346 350 345 340 320 252 223 218 207 195 193 193 188 186 191 189 187 181 180 184 186 188 191 191 192 200 211 224 237 249 257 263 271 275 277
320 331 334 333 329 327 330 333 335 336 337 335 334 331 321 290 228 199 197 196 195 191 184 185 188 188 184 185 187 188 188 191 199 203 206 216 233 243 253 260 268 269 273 276
287 302 313 319 324 328 325 325 325 326 326 321 316 314 313 298 256 218 204 197 196 190 186 187 187 182 181 183 185 185 185 187 192 200 208 220 232 244 254 262 268 272 275 276
Height
1480 1481 1482 1483 1483 1486 1487 1483 1481 1475 1477 1472 1472 1473 1474 1473 1472 1471 1470 1468 1466 1463 1461 1458 1456 1453 1450 1447 1445 1442 1439 1436 1433 1431 1429 1428 1427 1426 1426 1426 1427 1427 1427 1428
1483 1482 1483 1482 1479 1480 1482 1480 1479 1478 1476 1469 1470 1472 1471 1470 1470 1469 1468 1466 1464 1462 1459 1457 1455 1452 1449 1446 1443 1441 1438 1435 1433 1431 1429 1428 1427 1426 1426 1426 1426 1426 1427 1427
1477 1481 1481 1475 1469 1472 1474 1473 1474 1474 1470 1467 1468 1468 1468 1468 1467 1467 1466 1464 1462 1460 1458 1456 1454 1451 1448 1446 1444 1441 1438 1436 1434 1432 1430 1429 1428 1428 1427 1427 1427 1427 1427 1428
1477 1480 1480 1462 1463 1464 1466 1467 1469 1467 1465 1465 1466 1466 1466 1465 1465 1465 1464 1462 1461 1460 1458 1456 1454 1452 1449 1447 1445 1442 1440 1437 1435 1433 1432 1431 1430 1430 1429 1429 1429 1430 1431 1432
1476 1473 1463 1459 1461 1463 1464 1463 1462 1464 1463 1463 1464 1464 1462 1462 1462 1462 1462 1461 1460 1459 1458 1456 1454 1453 1451 1449 1447 1444 1442 1440 1438 1437 1436 1435 1434 1434 1434 1434 1434 1435 1436 1437
1473 1472 1462 1455 1457 1460 1462 1458 1457 1460 1460 1461 1463 1459 1459 1461 1461 1461 1461 1460 1459 1459 1458 1457 1456 1454 1453 1451 1449 1448 1446 1444 1443 1441 1440 1439 1439 1439 1439 1439 1439 1440 1440 1441
1470 1468 1457 1455 1457 1460 1461 1455 1457 1458 1458 1459 1459 1459 1459 1459 1459 1459 1460 1460 1459 1459 1459 1458 1457 1457 1456 1454 1453 1451 1450 1449 1447 1446 1445 1445 1444 1444 1444 1445 1445 1445 1445 1445
1464 1465 1458 1454 1456 1456 1454 1455 1455 1456 1456 1456 1456 1456 1456 1457 1457 1458 1459 1459 1459 1459 1459 1459 1459 1459 1458 1457 1456 1455 1454 1453 1452 1451 1450 1450 1449 1449 1449 1449 1449 1448 1448 1448
1454 1453 1451 1452 1452 1453 1454 1454 1454 1454 1454 1454 1453 1453 1454 1454 1455 1456 1457 1458 1459 1459 1460 1460 1460 1460 1460 1459 1458 1458 1457 1456 1455 1454 1454 1454 1453 1453 1453 1452 1452 1451 1450 1450
1451 1448 1449 1450 1451 1451 1451 1451 1451 1451 1451 1451 1451 1451 1451 1451 1453 1454 1455 1457 1458 1459 1459 1460 1460 1460 1460 1460 1459 1459 1459 1458 1458 1457 1457 1456 1456 1455 1455 1454 1453 1452 1451 1450
1446 1446 1447 1447 1448 1449 1449 1449 1449 1449 1448 1448 1448 1447 1448 1448 1449 1451 1453 1455 1456 1457 1458 1459 1460 1460 1460 1460 1460 1460 1460 1460 1459 1459 1459 1458 1457 1457 1456 1455 1454 1453 1452 1451
1439 1441 1443 1444 1445 1446 1446 1446 1446 1445 1445 1444 1444 1444 1444 1445 1446 1448 1450 1452 1453 1455 1457 1458 1459 1459 1460 1460 1460 1461 1460 1460 1460 1460 1459 1459 1458 1457 1456 1455 1454 1452 1451 1449
1438 1439 1440 1442 1442 1442 1443 1442 1442 1442 1441 1441 1440 1440 1440 1441 1442 1444 1446 1448 1450 1452 1454 1456 1457 1458 1459 1459 1459 1460 1460 1460 1460 1460 1459 1459 1458 1457 1456 1454 1453 1451 1449 1447
1435 1437 1438 1439 1440 1439 1439 1438 1438 1437 1437 1436 1436 1436 1436 1437 1438 1440 1442 1445 1447 1449 1451 1453 1455 1456 1457 1458 1458 1459 1459 1459 1459 1459 1459 1458 1457 1456 1454 1453 1451 1449 1447 1445
1433 1435 1436 1436 1436 1436 1435 1434 1433 1433 1432 1432 1432 1432 1432 1433 1434 1436 1438 1441 1443 1445 1448 1450 1452 1454 1455 1456 1457 1458 1458 1458 1458 1458 1457 1457 1455 1454 1452 1451 1449 1447 1444 1442
1431 1432 1433 1433 1432 1432 1431 1430 1429 1428 1428 1428 1428 1428 1428 1429 1431 1432 1434 1436 1438 1440 1443 1446 1448 1451 1453 1454 1455 1456 1456 1457 1457 1456 1456 1455 1453 1452 1450 1448 1446 1444 1442 1439
1429 1429 1430 1429 1429 1428 1427 1426 1425 1424 1424 1424 1424 1424 1425 1425 1426 1428 1430 1432 1435 1438 1440 1443 1446 1448 1450 1452 1453 1454 1455 1455 1455 1454 1453 1452 1451 1449 1447 1445 1443 1441 1439 1436
1426 1427 1427 1426 1426 1425 1424 1422 1421 1420 1420 1419 1420 1420 1420 1421 1422 1424 1426 1428 1431 1433 1436 1439 1442 1445 1447 1449 1451 1452 1452 1453 1452 1452 1451 1450 1448 1447 1445 1442 1440 1438 1436 1433
1424 1424 1424 1424 1423 1422 1420 1419 1417 1416 1416 1415 1415 1416 1417 1418 1419 1421 1423 1424 1426 1428 1431 1435 1438 1441 1444 1446 1448 1449 1450 1450 1450 1449 1448 1447 1445 1444 1442 1440 1437 1435 1433 1430
1423 1423 1422 1421 1420 1419 1417 1416 1414 1413 1412 1412 1412 1412 1413 1414 1415 1417 1418 1420 1422 1425 1429 1432 1435 1438 1441 1443 1445 1446 1447 1447 1447 1446 1445 1444 1443 1441 1439 1437 1435 1433 1430 1428
1422 1421 1421 1420 1419 1417 1415 1414 1412 1411 1410 1409 1409 1409 1410 1411 1412 1413 1414 1416 1419 1422 1425 1429 1432 1435 1438 1440 1442 1443 1444 1444 1444 1443 1443 1441 1440 1438 1436 1434 1432 1430 1428 1425
1421 1420 1420 1418 1417 1416 1414 1412 1411 1409 1408 1407 1407 1407 1407 1408 1409 1410 1411 1413 1416 1418 1421 1424 1428 1432 1434 1437 1438 1440 1440 1441 1441 1440 1439 1438 1437 1435 1433 1432 1429 1427 1425 1422
1420 1420 1419 1417 1416 1414 1413 1411 1410 1408 1407 1406 1405 1405 1405 1405 1406 1407 1408 1410 1412 1415 1418 1421 1425 1429 1431 1433 1435 1436 1437 1437 1437 1437 1436 1435 1434 1432 1431 1429 1427 1425 1422 1420
1420 1419 1418 1416 1415 1414 1412 1410 1409 1407 1406 1405 1404 1403 1403 1402 1403 1404 1405 1407 1409 1412 1415 1418 1422 1425 1428 1430 1431 1432 1433 1434 1434 1433 1433 1432 1430 1429 1428 1426 1424 1422 1419 1417
1419 1418 1417 1416 1414 1412 1411 1409 1407 1406 1404 1403 1402 1401 1401 1400 1401 1401 1403 1404 1406 1409 1412 1415 1418 1421 1423 1426 1427 1429 1429 1430 1430 1430 1429 1428 1427 1426 1424 1423 1420 1418 1416 1414
1418 1417 1416 1414 1413 1411 1409 1408 1406 1405 1403 1402 1401 1400 1399 1398 1398 1399 1400 1402 1404 1406 1408 1411 1414 1416 1419 1421 1423 1425 1426 1426 1426 1426 1425 1425 1424 1422 1421 1419 1417 1415 1413 1410
1416 1415 1414 1413 1412 1410 1408 1406 1405 1403 1402 1400 1399 1398 1397 1397 1397 1397 1397 1399 1400 1402 1404 1407 1409 1412 1414 1417 1419 1420 1421 1422 1422 1422 1422 1421 1420 1419 1417 1415 1414 1411 1409 1406